Theta_e
334 334 334 333 332 332 332 331 328 327 325 324 324 323 322 321 321 321 320 319 319 320 319 318 319 319 318 318 318 320 321 322 324 327 328 328 328 329 330 331 331 332 332 332 332 332 332 332 331 330 331 332 332 331 331 331 331 330 330 330 330 330 329
334 333 332 332 331 331 331 329 326 326 325 323 322 322 321 321 321 320 319 319 319 319 318 317 317 316 316 316 315 316 318 318 320 322 324 325 326 326 327 327 328 329 329 329 330 330 330 331 331 331 331 331 331 331 331 331 330 331 331 331 330 330 330
332 331 331 332 332 331 330 328 325 324 324 322 321 321 321 320 320 319 318 318 317 316 316 315 315 314 314 314 314 315 317 317 317 317 319 321 322 322 323 324 324 325 325 325 326 327 327 328 329 329 329 330 331 331 331 330 331 331 331 331 330 330 330
332 332 332 332 331 330 328 326 324 322 321 321 320 320 319 319 318 317 316 316 315 314 314 314 314 313 313 313 313 314 315 315 314 314 315 316 316 317 319 320 321 322 322 323 323 323 324 325 326 326 327 328 329 329 330 330 331 331 330 330 330 330 330
332 332 332 330 329 328 325 323 322 322 321 320 319 319 317 316 315 314 314 313 313 313 313 313 312 312 312 311 312 312 312 312 312 312 313 313 313 315 316 317 318 318 319 320 320 321 322 323 323 324 325 325 325 325 326 327 328 330 330 330 329 329 330
332 331 330 328 326 324 323 322 322 321 321 319 317 316 315 314 313 313 313 312 312 311 311 311 311 311 311 310 310 311 311 311 310 311 312 312 313 313 314 315 315 316 317 318 319 320 321 321 321 321 321 321 322 322 322 323 325 327 328 328 329 329 329
330 329 328 326 323 322 321 320 320 320 318 316 315 314 313 313 312 311 311 310 310 310 310 310 309 309 309 309 309 309 310 309 310 311 312 312 313 313 313 313 314 314 315 316 317 317 317 318 317 318 319 319 320 320 320 321 323 324 324 326 328 329 329
327 326 324 323 321 320 319 319 319 318 316 314 313 312 312 311 310 310 310 309 309 309 308 308 308 307 307 307 307 307 308 307 308 311 312 313 313 312 312 312 313 314 315 315 314 314 315 315 316 317 318 318 319 319 319 320 320 320 321 323 325 327 328
323 322 321 320 319 318 318 317 317 316 314 312 311 310 310 309 309 309 308 307 307 306 306 306 305 305 304 304 305 305 305 306 309 311 312 312 312 312 312 312 313 314 315 314 313 313 314 314 315 316 317 317 317 317 318 318 318 319 319 319 321 322 324
320 319 319 318 316 316 316 315 314 313 311 310 309 309 309 308 307 307 306 305 305 304 304 303 303 303 302 302 303 304 304 307 310 311 311 311 312 312 312 312 312 313 313 312 311 311 311 312 313 314 314 314 314 315 315 316 316 316 317 318 319 320 320
318 318 318 317 316 315 315 313 312 311 309 309 308 307 307 306 305 304 304 303 303 302 302 301 302 301 301 301 302 303 304 307 309 310 310 311 311 311 311 311 311 311 310 309 309 309 309 309 309 309 309 310 310 311 312 313 313 314 315 316 316 317 316
316 316 317 316 315 315 314 312 311 310 308 308 307 306 305 304 304 302 302 302 301 301 300 300 301 300 301 303 303 303 306 308 309 310 310 310 310 310 310 309 309 308 307 307 306 306 306 306 306 306 306 307 307 307 308 309 310 311 311 312 312 313 313
315 315 315 314 314 314 312 310 309 307 307 306 305 304 304 303 302 301 301 300 300 300 299 299 300 299 302 305 305 306 308 309 309 309 309 309 309 308 308 308 308 307 305 304 304 304 304 304 304 304 305 305 305 305 305 306 307 308 308 308 309 309 310
315 314 313 312 312 311 309 308 307 306 305 304 304 303 302 301 300 300 300 299 299 299 298 298 299 298 302 306 307 307 308 308 308 308 308 308 308 307 307 307 306 305 303 303 303 303 303 303 303 304 303 303 304 304 304 305 305 306 306 306 307 307 308
313 312 312 311 309 308 307 306 306 304 303 303 303 302 300 299 299 298 299 298 298 298 297 298 298 297 301 305 307 307 307 307 307 307 306 306 306 305 305 305 305 303 302 302 302 302 302 302 303 303 303 303 303 303 304 304 304 304 305 306 306 307 307
311 310 310 308 307 306 305 304 304 303 302 301 301 300 299 298 298 298 298 297 297 297 297 297 297 297 301 304 305 306 306 306 306 306 305 304 304 303 303 303 303 302 301 301 301 301 302 302 302 303 303 303 303 303 303 303 303 303 303 305 306 306 307
310 308 307 306 306 306 304 303 302 302 301 300 300 299 298 298 297 297 297 296 296 297 296 297 297 297 302 304 304 304 305 306 305 304 304 304 303 303 302 302 302 302 301 301 300 300 301 302 302 303 303 303 303 303 303 302 302 302 302 304 305 305 306
308 306 305 305 305 305 302 301 301 300 300 300 300 298 297 297 297 296 296 296 296 296 296 297 296 297 302 304 304 303 304 304 303 303 303 303 302 302 302 302 302 301 300 300 299 300 300 301 302 302 302 303 302 301 301 301 301 302 302 303 304 304 305
305 304 304 304 304 302 301 300 300 300 299 298 298 297 296 296 296 295 296 296 296 296 296 296 296 297 300 303 304 304 303 302 302 303 303 302 300 301 300 301 301 300 300 299 299 299 300 300 301 302 302 302 300 299 300 300 301 302 303 303 304 304 305
304 303 303 303 302 301 302 302 301 302 302 301 300 298 295 295 296 295 296 296 296 296 296 296 296 297 300 301 303 304 303 302 302 302 302 300 299 299 299 300 300 300 299 299 299 300 300 300 301 302 302 301 300 300 300 301 301 302 302 303 303 304 305
304 303 303 302 301 301 301 302 302 303 304 303 302 300 296 295 295 295 295 295 296 296 296 296 296 298 300 301 303 304 303 301 301 301 300 299 298 299 299 299 299 299 299 300 300 300 300 301 301 301 301 300 300 301 301 301 301 302 302 302 302 303 303
304 303 302 301 300 300 299 299 300 301 302 303 304 301 297 295 295 295 295 295 296 296 296 296 297 298 300 301 302 303 303 301 300 300 299 298 298 298 298 299 299 299 300 300 300 301 301 301 301 300 300 300 300 301 301 301 301 301 301 301 301 301 302
303 302 301 300 299 299 298 299 299 300 301 302 303 301 297 295 295 295 295 295 296 296 296 296 297 298 300 301 302 303 302 301 300 300 299 298 298 298 298 298 299 300 300 299 300 300 301 301 301 300 300 300 300 301 301 301 301 301 301 300 299 300 300
301 300 300 299 299 298 298 299 298 298 299 299 300 301 298 295 294 295 295 295 295 295 296 296 297 298 300 301 302 302 302 301 301 300 299 299 298 298 298 299 299 299 299 299 299 300 300 300 300 300 300 300 300 300 300 300 300 300 299 299 298 298 299
300 300 301 299 298 298 299 298 298 298 298 298 300 302 301 297 295 295 295 295 295 295 296 297 298 298 299 301 302 302 301 301 301 301 300 300 298 297 298 299 299 299 299 299 299 299 299 299 299 299 300 300 299 299 299 299 299 298 298 298 298 298 298
303 303 302 300 299 299 298 297 296 296 297 298 298 301 301 298 295 294 295 295 295 295 296 297 298 298 299 300 302 302 302 302 301 301 301 300 299 297 298 299 300 299 299 299 299 299 299 299 299 299 299 299 299 299 298 298 298 298 298 297 297 298 298
305 304 303 302 302 300 297 296 296 296 296 297 297 299 300 297 294 294 295 295 295 295 296 297 298 299 300 301 302 302 302 302 302 301 301 300 299 298 298 299 300 299 299 299 299 299 299 299 299 299 299 299 299 299 299 299 299 299 298 298 298 298 298
304 304 303 302 301 299 298 298 297 298 298 297 296 297 298 297 295 294 295 295 295 295 295 296 297 299 301 302 302 302 302 302 302 301 301 300 299 298 298 299 299 299 299 299 299 299 299 299 299 299 299 299 299 299 299 299 299 299 299 298 298 298 298
303 303 302 300 298 298 299 299 298 297 297 296 296 296 296 296 295 294 294 295 295 295 295 296 297 298 300 302 302 302 302 301 301 301 301 300 299 299 298 298 299 299 299 298 298 298 298 298 298 298 298 298 298 299 299 299 299 299 299 299 298 298 298
302 302 300 298 296 297 298 299 297 295 295 295 295 294 295 295 295 294 294 294 294 295 295 295 296 297 299 300 301 302 302 302 301 301 300 300 299 299 298 298 298 299 298 298 298 298 297 298 298 297 298 298 298 299 299 299 299 299 299 299 299 298 298
300 299 298 296 295 296 298 300 299 299 299 298 296 294 294 294 294 294 294 294 294 295 295 295 295 296 296 297 298 299 300 301 301 300 300 299 299 298 298 297 297 298 298 297 297 297 297 297 297 297 297 298 298 299 299 299 299 298 299 299 299 299 299
297 296 296 295 295 296 298 300 301 301 302 302 300 297 295 294 294 294 294 294 294 294 294 295 295 295 296 296 296 296 297 298 300 300 300 299 298 297 297 296 296 297 297 297 297 297 296 296 297 297 297 297 298 299 299 299 298 298 298 298 298 299 299
295 295 295 295 295 296 298 300 301 302 303 302 301 299 297 296 295 294 294 294 294 294 294 294 294 295 295 295 295 296 296 297 298 299 300 299 298 296 295 295 296 296 296 296 296 296 296 296 297 297 297 297 298 298 299 299 298 298 298 298 298 298 298
295 295 295 295 295 296 299 302 303 303 302 301 300 299 299 299 299 297 296 295 295 294 294 294 294 294 294 295 295 295 295 296 297 297 298 299 298 296 295 295 295 295 296 296 296 296 296 296 296 297 297 297 297 298 298 299 298 298 297 298 298 298 298
295 295 295 295 295 297 301 303 304 302 301 300 301 302 302 302 301 301 300 299 297 296 295 294 294 294 294 294 295 295 295 295 295 296 297 298 297 296 295 295 295 295 295 296 296 296 296 296 296 296 297 297 297 297 298 298 298 298 297 297 298 298 298
295 295 295 294 296 299 301 302 301 299 299 301 302 303 303 303 302 302 301 300 300 299 297 294 293 293 294 294 294 295 295 295 295 295 295 296 296 295 295 296 296 296 295 295 296 296 296 296 296 296 296 297 297 297 297 298 297 297 297 297 297 298 298
295 295 295 295 297 300 301 300 300 300 301 302 303 303 303 303 302 302 301 301 300 299 297 294 293 293 294 294 294 294 295 295 294 294 295 295 295 295 296 296 296 296 296 295 296 296 296 296 296 296 296 296 296 296 297 297 297 297 297 297 297 297 298
Wind_Speed
8 8 9 9 8 8 8 7 5 4 2 1 2 3 2 2 3 3 2 1 2 2 3 4 5 7 7 7 9 9 9 10 10 10 11 12 12 12 11 11 11 11 13 16 18 19 21 25 27 24 21 20 21 23 25 24 23 22 22 21 20 19 18
8 9 8 7 7 7 7 6 2 1 1 2 3 2 1 1 1 2 2 3 4 5 7 8 7 8 9 9 9 8 9 11 10 11 13 13 14 15 15 15 14 14 14 13 14 17 19 22 24 26 26 23 22 23 23 24 24 23 22 22 21 20 19
7 7 7 7 6 6 6 5 3 2 2 2 3 1 1 3 4 4 4 5 5 6 6 7 7 8 8 9 8 8 9 11 11 11 12 13 15 15 15 16 16 17 18 17 17 18 20 21 23 26 28 25 24 23 21 21 22 22 22 23 22 21 21
9 9 8 8 7 7 7 5 2 2 2 2 2 1 1 3 4 4 5 5 6 6 6 7 8 8 8 8 8 9 10 11 12 11 10 11 13 12 11 12 13 14 15 17 19 20 21 22 25 27 27 26 26 24 21 19 19 21 22 23 24 23 22
12 12 11 10 10 8 5 2 2 2 3 3 2 1 1 3 4 5 6 6 6 7 8 8 9 9 9 9 9 10 11 11 12 12 11 12 12 12 11 11 11 11 12 13 15 17 18 20 22 24 25 26 28 28 25 23 20 19 18 21 24 25 23
13 13 11 10 8 5 4 4 4 3 3 2 0 2 4 6 6 7 7 7 8 8 8 9 9 9 9 10 10 11 11 11 11 12 12 12 12 12 12 12 11 12 11 12 13 13 15 17 19 21 24 25 27 30 29 27 24 21 19 17 19 22 23
15 15 13 11 7 5 5 5 6 5 3 2 4 5 6 7 6 7 7 8 8 8 9 9 9 10 10 10 10 11 11 10 10 12 13 13 13 13 13 13 14 15 14 13 14 14 15 17 19 21 24 25 26 28 29 26 24 25 24 19 17 18 21
17 15 13 11 9 6 5 4 5 4 3 5 7 7 7 7 7 8 8 8 8 9 9 9 10 10 10 10 10 11 11 10 10 12 13 14 15 15 15 16 16 17 17 17 17 17 17 17 18 19 21 25 27 28 28 27 27 26 24 23 21 18 17
12 11 10 10 8 7 6 5 5 6 7 8 9 8 8 8 8 8 8 8 9 9 9 10 10 10 10 11 10 11 12 11 11 11 11 14 17 17 18 18 18 17 16 17 16 15 14 14 15 16 17 20 25 28 28 28 28 28 27 27 27 23 20
9 9 8 8 8 8 7 6 8 9 10 9 9 8 9 8 8 8 8 9 9 9 9 9 10 10 11 11 11 12 12 11 13 13 13 15 16 16 17 17 16 15 15 16 15 14 14 13 13 15 16 16 19 24 27 28 28 29 28 27 27 28 27
10 9 9 8 8 8 9 9 10 10 10 9 9 9 9 9 9 8 8 8 9 9 10 10 10 11 12 12 12 13 14 15 16 16 16 16 14 14 15 15 14 14 15 15 15 15 14 14 15 16 17 17 17 19 23 27 28 28 26 26 27 29 31
11 12 11 10 9 9 10 10 10 10 10 9 9 10 9 9 9 8 8 9 9 10 10 10 10 11 12 13 14 16 18 18 18 17 17 17 16 15 15 16 17 17 17 16 16 16 16 17 19 21 21 21 20 19 19 23 27 29 27 28 30 31 32
12 11 11 11 11 11 11 11 11 11 11 10 10 10 9 9 9 9 9 9 10 10 9 9 9 10 12 14 16 17 18 18 17 16 16 17 17 17 17 18 18 19 19 19 19 19 19 21 23 24 24 24 23 22 21 21 25 31 32 30 31 32 31
12 12 12 12 13 13 12 12 12 12 12 11 10 10 9 9 9 9 9 9 9 9 9 10 10 9 12 14 16 17 16 16 16 15 15 15 16 17 17 17 18 19 20 20 21 22 22 24 25 25 25 25 25 25 23 22 25 31 35 34 33 33 31
13 14 14 14 15 15 14 13 12 12 12 12 11 10 10 10 10 10 10 9 10 10 10 10 10 10 13 14 15 16 16 16 16 15 15 16 16 16 17 17 18 20 22 22 23 24 25 26 27 27 27 26 26 25 23 23 24 28 34 37 37 35 33
16 16 16 16 17 16 16 15 13 12 12 12 12 11 10 10 10 10 11 11 11 11 11 12 10 10 14 15 15 16 16 16 16 17 17 18 18 19 19 19 20 22 24 24 25 25 26 28 29 29 28 27 27 27 24 23 24 27 31 35 37 36 35
17 18 18 18 18 17 16 15 14 13 13 13 13 12 12 12 11 12 13 13 13 12 12 13 11 11 16 17 15 16 17 16 16 17 19 20 20 20 21 21 21 23 23 24 26 27 28 30 30 30 30 28 26 26 26 24 24 25 28 32 35 35 34
18 19 19 18 17 17 17 16 15 14 13 13 13 13 14 14 13 14 15 14 14 14 14 15 12 11 15 17 15 16 17 15 16 18 19 19 19 20 21 20 21 24 25 26 29 31 31 32 33 32 31 29 27 26 27 28 26 26 27 30 33 35 34
20 20 19 18 17 17 17 16 15 14 14 14 14 14 15 15 15 16 16 16 15 15 15 15 13 11 12 15 16 17 16 16 17 18 17 18 19 20 21 21 23 26 27 29 32 33 33 33 33 32 31 28 27 28 29 29 27 27 28 29 31 33 34
21 20 18 18 18 18 17 17 16 15 14 14 15 15 16 16 17 17 17 17 16 16 16 16 14 13 13 16 18 18 16 16 17 16 16 19 22 23 24 24 25 27 28 30 33 33 32 32 31 30 29 27 26 28 30 30 28 27 28 29 30 31 32
20 19 19 18 18 17 17 17 17 16 15 15 14 14 15 16 17 17 17 17 17 17 17 17 16 15 15 16 18 18 16 15 17 16 17 22 25 26 25 25 25 27 30 32 33 32 29 29 29 28 27 26 26 27 30 31 30 28 28 29 31 31 31
20 19 19 18 18 17 16 16 17 17 16 16 15 14 15 16 17 17 18 18 18 18 19 19 18 16 16 15 18 18 15 15 16 18 20 23 26 26 25 25 25 28 31 34 33 30 27 26 26 28 27 26 25 26 29 31 30 30 32 32 32 33 33
20 19 19 19 18 18 17 17 16 16 16 16 15 14 15 16 17 17 18 18 19 19 20 20 18 17 16 16 17 18 15 15 16 18 22 24 26 27 27 25 26 29 33 35 35 32 29 29 30 31 30 27 24 24 27 29 29 31 33 34 33 33 33
20 19 19 18 18 18 17 17 17 17 17 16 16 15 15 15 16 17 18 18 19 20 20 18 17 16 17 17 18 18 16 16 16 17 21 24 26 29 28 27 27 30 33 36 36 36 35 37 38 36 34 30 26 24 25 27 29 31 32 33 32 32 33
20 19 18 18 18 17 17 17 17 17 17 16 16 15 14 14 15 16 17 18 19 20 19 17 16 17 19 19 18 17 16 16 16 17 18 22 26 30 30 28 27 30 33 35 37 38 38 40 41 39 37 34 30 29 28 28 29 31 32 32 32 32 32
20 19 18 18 18 17 17 18 17 17 17 16 16 16 14 14 15 16 17 18 19 19 18 17 16 19 22 20 18 16 15 15 17 17 16 19 25 29 29 28 27 29 32 33 35 37 38 40 41 41 39 37 34 34 35 34 32 32 32 32 32 31 30
19 18 18 18 17 17 18 18 18 17 16 15 15 16 15 14 15 16 16 17 18 19 19 17 16 18 20 19 18 17 15 13 15 16 15 17 23 27 28 27 26 28 30 32 34 36 38 39 40 40 40 39 38 39 40 39 38 37 35 33 33 32 30
19 18 18 18 18 18 18 17 16 16 15 14 14 15 15 15 15 16 16 17 18 19 19 17 15 16 17 17 16 17 15 13 13 15 16 17 21 24 27 26 25 27 29 30 32 35 36 37 38 39 40 41 41 43 44 43 42 42 41 38 36 35 33
19 19 18 19 20 19 18 16 15 16 15 14 13 14 15 15 15 16 16 16 17 19 20 18 16 15 15 15 16 15 13 13 14 14 15 17 19 22 24 24 23 25 27 29 31 32 34 36 37 37 39 41 41 43 44 44 43 42 43 42 40 39 38
20 19 19 20 21 20 18 16 16 16 15 14 13 13 14 14 15 16 16 17 17 18 19 19 17 16 14 13 14 14 11 11 13 14 15 16 18 19 20 21 21 23 25 27 29 31 33 35 37 37 38 40 41 41 43 45 45 44 45 45 44 44 43
21 21 21 22 22 21 19 16 15 14 13 13 13 14 15 15 15 15 16 16 17 17 17 17 16 16 15 13 13 14 12 12 13 15 14 14 15 16 17 19 20 21 23 25 28 30 32 35 37 38 38 39 40 40 40 43 47 48 48 48 48 48 47
23 23 23 23 22 22 20 17 15 14 12 10 10 12 14 15 16 16 16 16 17 16 16 15 15 15 16 15 15 16 15 14 15 15 14 13 14 16 17 19 20 21 22 24 27 29 32 33 35 37 37 38 39 38 37 40 45 49 50 51 51 51 51
23 23 23 23 23 21 20 17 15 13 10 9 10 11 13 14 15 16 16 16 16 16 15 14 13 14 15 15 16 17 16 14 14 14 13 12 14 17 19 20 22 22 22 25 27 29 30 31 33 35 35 35 36 36 35 36 41 46 50 52 52 52 53
23 23 22 23 23 22 20 16 13 11 11 11 12 13 12 12 12 13 14 15 15 15 14 12 12 13 14 15 16 16 16 14 13 13 12 11 13 17 20 22 23 23 24 25 27 29 30 30 31 33 33 33 33 33 32 34 38 43 48 51 52 52 53
23 23 22 22 22 20 17 14 12 14 14 13 12 10 9 8 9 9 10 11 12 13 13 11 10 11 12 14 15 14 14 13 12 12 12 11 12 16 20 23 24 25 25 25 26 29 29 29 31 32 30 30 32 32 31 32 36 41 44 48 51 52 52
23 23 22 22 21 18 15 13 14 15 15 13 11 10 8 8 7 7 7 7 8 9 10 10 9 9 10 12 13 12 12 12 11 12 12 12 13 16 20 23 24 26 26 25 25 27 29 28 30 31 29 29 31 32 31 31 34 39 42 45 49 51 51
24 23 23 22 20 18 16 14 13 13 11 10 9 8 8 7 6 6 6 5 5 5 7 9 9 8 8 9 11 11 12 11 10 11 12 12 14 17 20 22 24 24 25 24 23 25 28 28 28 30 30 29 30 32 32 31 34 38 41 42 45 48 49
Wind_Direction
161 180 193 195 209 221 233 246 242 238 230 189 226 228 210 216 225 238 250 278 303 299 304 309 301 303 308 302 296 293 292 290 286 283 289 297 301 298 293 293 300 311 320 325 325 324 320 316 318 323 323 320 317 316 319 321 320 316 312 307 302 301 300
178 189 196 193 205 217 232 250 252 98 76 253 252 241 260 295 316 336 325 310 322 324 322 325 323 321 323 322 315 305 298 299 292 281 281 286 292 295 294 294 298 302 305 311 320 327 326 323 322 322 322 322 319 317 318 319 318 315 313 311 305 299 298
194 188 191 194 205 220 231 234 215 180 197 260 286 300 318 331 351 352 341 337 344 342 336 341 343 339 340 342 336 322 309 308 305 297 290 288 291 294 295 299 307 312 311 310 314 321 324 325 323 319 320 323 321 316 317 319 317 315 312 309 307 304 301
192 185 188 192 199 216 225 225 215 229 253 275 301 310 318 339 360 11 6 8 13 7 2 4 360 358 360 352 338 327 320 320 323 325 317 304 305 310 311 313 316 317 316 314 317 322 324 323 320 318 318 320 316 312 313 314 312 312 311 307 304 305 303
185 184 186 193 205 212 205 164 86 27 306 277 257 275 49 46 41 42 34 30 28 19 14 12 7 6 2 351 344 341 336 333 335 336 331 324 324 327 328 329 325 322 326 331 330 329 327 322 319 317 316 315 312 307 305 308 310 312 312 309 305 303 301
189 190 190 196 206 193 149 135 139 169 247 250 128 65 73 67 52 46 40 31 25 20 16 12 9 7 1 355 352 347 341 339 340 338 335 337 339 337 337 340 342 344 347 343 332 324 321 320 321 320 317 316 314 309 308 311 314 313 312 310 307 305 304
203 201 196 191 183 159 150 161 166 181 210 142 91 76 73 67 56 47 40 33 27 23 20 16 14 10 4 2 356 346 343 344 347 349 349 352 352 349 351 352 356 0 356 344 334 330 330 329 331 330 325 322 319 316 315 315 312 308 308 308 302 303 308
208 204 193 183 175 165 161 163 160 160 143 100 88 79 72 65 59 51 42 38 33 28 26 21 17 12 7 6 358 347 346 353 2 4 4 3 358 356 360 1 5 7 357 346 344 346 345 340 339 337 332 326 323 320 317 314 311 307 305 304 297 294 302
193 189 180 173 168 158 150 148 138 117 97 90 86 80 74 66 61 57 51 45 39 33 28 22 17 13 9 7 360 352 354 5 14 11 11 13 5 1 5 5 7 6 350 338 339 342 340 338 336 332 331 332 329 325 321 317 313 307 304 306 301 293 293
168 166 162 157 150 143 134 122 109 99 93 92 90 84 78 73 69 64 57 48 41 35 28 22 20 16 12 9 5 0 1 13 22 16 16 19 10 4 7 5 4 357 338 331 337 339 336 333 327 320 320 326 328 326 323 320 314 307 307 311 307 300 297
146 137 133 133 133 130 122 113 108 106 103 100 96 89 84 79 71 65 59 50 41 37 31 26 24 21 19 16 14 13 15 25 28 20 18 19 9 3 4 0 357 346 335 336 343 345 345 336 328 328 328 328 328 324 321 316 310 306 306 306 302 300 301
131 131 134 135 134 128 121 117 113 110 106 104 101 96 89 83 76 67 59 51 45 41 36 32 30 30 30 26 25 29 29 32 29 20 18 17 7 3 6 4 359 349 345 350 351 350 349 340 338 342 342 339 337 331 325 318 309 305 307 306 304 305 306
131 133 134 134 131 126 122 120 116 112 111 108 105 100 93 87 80 71 63 55 51 47 41 38 36 40 43 37 36 38 34 33 30 21 20 17 9 8 9 8 3 353 350 354 353 352 349 345 346 348 345 342 341 336 330 321 310 307 311 312 311 312 312
132 133 133 132 130 126 124 123 120 119 117 112 108 104 100 92 82 76 70 62 57 53 49 48 44 49 55 47 42 40 35 35 30 21 20 18 11 11 10 8 2 354 353 355 354 354 353 351 351 350 348 344 341 338 333 324 313 310 314 317 315 316 317
134 134 131 129 127 125 124 122 122 124 121 115 110 106 102 94 88 83 75 69 65 58 54 55 52 60 64 54 47 41 36 37 30 19 21 18 12 12 10 7 1 355 356 359 358 358 357 356 355 353 351 346 339 339 335 325 317 312 313 318 320 319 320
135 134 129 129 129 128 126 123 123 122 120 117 110 104 100 95 91 86 78 72 68 61 60 60 57 67 67 56 50 45 38 36 31 22 21 18 13 12 9 8 5 360 360 1 360 0 360 358 358 355 351 348 343 340 336 329 323 316 313 317 321 320 320
135 134 132 133 132 130 129 127 124 122 118 114 108 102 99 94 89 85 80 75 70 66 66 61 58 72 70 55 46 47 42 35 29 27 25 20 16 13 10 11 8 3 3 2 0 1 0 359 358 355 352 350 346 340 338 335 330 323 317 316 320 322 321
136 136 136 135 132 131 130 127 126 124 120 115 109 103 99 93 88 82 78 74 71 68 66 62 58 68 72 61 48 44 43 36 32 33 30 22 18 14 13 14 9 5 6 6 3 2 360 358 357 354 352 350 347 344 342 339 334 328 321 316 318 321 321
138 137 136 134 131 130 127 124 124 120 116 113 107 101 97 91 87 81 77 73 70 68 66 63 57 57 69 73 63 47 38 37 39 39 32 24 22 20 19 18 13 9 8 6 4 2 358 355 355 353 352 352 353 352 347 340 332 329 326 321 319 321 321
139 138 136 134 133 132 128 126 123 115 108 104 98 95 91 88 85 81 77 74 70 67 63 60 61 63 69 75 70 53 37 37 43 40 32 28 27 26 26 23 16 11 10 8 6 4 358 354 353 353 354 356 356 355 352 345 335 331 331 327 323 322 320
139 138 137 136 137 137 135 134 129 121 113 105 96 91 88 84 81 78 75 73 69 66 61 58 60 67 71 72 71 61 41 35 43 40 33 31 28 26 26 24 17 13 14 14 11 7 1 355 354 357 358 359 357 354 351 348 341 335 333 330 328 325 320
139 137 136 136 135 134 133 133 130 125 118 109 100 95 89 83 79 75 71 68 65 61 58 56 56 63 71 71 70 65 45 33 41 40 34 32 27 24 24 22 18 18 21 21 17 12 9 8 8 6 4 2 358 352 348 345 340 335 333 333 333 330 325
139 139 138 137 135 133 130 128 127 125 121 115 109 101 92 85 79 74 70 66 63 58 54 55 56 62 71 70 68 66 49 33 38 37 33 32 26 22 24 22 20 23 26 25 23 21 22 25 24 18 11 6 0 351 346 345 342 335 331 333 335 333 327
140 139 138 136 136 135 132 130 128 125 122 118 111 100 89 83 78 74 71 66 62 59 55 57 60 64 71 71 66 62 50 38 38 34 30 29 23 21 24 24 23 27 28 27 28 28 29 30 29 23 17 13 8 360 352 346 341 336 334 335 335 333 328
137 134 134 134 134 132 130 129 128 125 122 117 111 102 91 84 79 75 72 68 63 60 58 60 66 71 75 75 70 63 52 42 38 32 26 22 19 20 24 25 28 30 29 28 28 28 30 32 31 26 21 18 14 11 8 1 351 346 343 340 336 335 333
132 130 131 132 132 131 131 131 129 125 121 117 113 107 97 89 84 78 74 70 66 62 61 65 75 79 77 74 70 64 54 42 37 34 25 15 14 18 22 23 29 33 30 27 26 26 28 31 31 27 24 22 18 15 15 15 11 4 357 350 344 340 337
133 132 132 130 130 132 132 130 125 120 116 114 113 109 102 95 88 83 77 73 69 65 64 69 79 82 80 75 67 60 52 42 35 32 23 10 10 16 19 20 27 33 31 27 25 25 24 27 28 26 24 24 22 18 17 18 18 15 9 4 358 351 343
136 134 133 134 134 132 128 124 121 118 114 113 114 113 108 101 92 86 80 77 74 69 67 71 77 83 85 84 75 62 52 45 38 32 23 12 9 13 15 18 26 32 31 28 26 25 23 23 25 23 20 20 19 16 16 17 18 16 13 11 8 2 356
138 135 137 140 138 133 127 124 125 124 120 118 117 117 114 107 99 93 86 80 77 73 72 72 75 83 88 90 87 75 57 45 41 34 26 16 11 11 11 13 23 30 30 29 27 25 22 21 19 16 13 13 12 11 12 15 18 17 14 13 13 10 6
142 140 142 144 142 135 128 125 124 121 118 115 114 115 112 105 99 95 90 84 80 76 75 74 74 79 83 87 92 89 75 57 46 37 28 18 12 10 9 11 19 26 28 28 26 24 22 19 17 13 9 7 7 6 8 12 16 17 15 15 15 14 12
150 149 148 147 144 137 130 126 124 120 116 112 109 107 105 101 96 92 88 86 81 76 75 76 76 77 77 76 79 82 84 80 63 46 33 20 13 12 11 13 19 24 26 26 26 24 21 18 15 13 9 5 4 3 4 7 10 13 15 16 17 17 16
156 154 152 149 145 139 133 131 128 123 119 116 111 104 100 98 93 87 83 82 79 76 74 74 75 75 74 70 67 68 73 77 70 56 36 19 16 18 17 17 21 24 25 26 25 24 21 17 14 12 10 5 3 3 3 4 6 9 13 14 14 15 15
157 155 152 149 144 138 133 129 123 118 121 129 128 116 104 95 87 82 78 74 72 70 67 67 70 73 72 69 64 63 63 64 67 62 41 16 14 21 23 24 23 22 24 25 24 21 19 16 12 11 10 6 2 3 4 3 5 8 10 11 11 12 13
156 154 153 151 147 141 136 130 127 134 142 138 124 109 97 87 77 70 68 64 61 59 55 54 58 63 68 68 63 61 59 56 59 62 48 23 14 19 23 24 23 22 22 24 23 19 15 15 13 10 11 8 4 4 7 4 2 5 9 10 11 12 12
156 154 154 153 148 142 135 133 142 152 149 135 120 110 102 90 73 60 54 47 43 45 44 43 45 50 59 65 62 59 57 52 51 57 52 34 22 23 24 23 21 21 19 20 22 18 13 13 13 10 10 9 5 7 10 6 1 3 8 9 10 11 11
156 154 153 151 144 139 137 139 143 142 130 117 112 111 108 101 87 76 67 48 34 31 30 34 42 43 49 61 64 61 56 51 46 49 49 39 32 33 31 24 20 18 15 15 20 17 12 13 14 10 11 11 7 8 11 8 4 5 8 9 10 11 11
156 155 153 149 142 136 134 132 128 120 110 104 105 106 107 108 104 98 93 77 52 29 19 27 39 40 41 57 68 66 58 51 46 46 48 44 37 36 34 26 19 15 10 12 20 18 13 14 15 11 11 11 8 9 12 11 7 7 9 10 10 11 12